Regional Weather Roundup
Issued by NWS

Home | Current Version | Previous Version | Text Only | Print | Product List | Glossary On
Versions: 1 2 3 4 5 6 7 8 9 10 11 12 13 14 15 16 17 18 19 20 21 22 23 24 25 26 27 28 29 30 31 32 33 34 35 36 37 38 39 40 41 42 43 44 45 46 47 48 49 50
000
ASCA42 TJSJ 191111
RWRPR
PUERTO RICO/U.S. VIRGIN ISLANDS HOURLY WEATHER ROUNDUP
NATIONAL WEATHER SERVICE SAN JUAN PR
700 AM AST FRI DEC 19 2014

PRZ001-004-191200-
PUERTO RICO

CITY           SKY/WX    TMP DP  RH WIND       PRES   REMARKS
SAN JUAN LMM   PTCLDY    73  70  88 CALM      29.97R
AGUADILLA      MOCLDY    72  66  83 SE7       29.98
CEIBA          CLOUDY    79  66  65 NE8       29.99R
$$

PRZ006-007-191200-
U.S. VIRGIN ISLANDS

CITY           SKY/WX    TMP DP  RH WIND       PRES   REMARKS
CHRISTIANSTED  LGT RAIN  73  72  94 NE6       29.95
$$

HOURLY WEATHER ROUNDUP FOR THE NEWS MEDIA

CITY           SKY/WX    TMP DP  RH WIND       PRES   REMARKS
MIAMI          PTCLDY    63  52  67 N3        30.08R
ORLANDO        PTCLDY    53  49  86 CALM      30.10S
NEW YORK       CLOUDY    38  22  52 NW10G21   30.00R WCI  31
NEWARK         CLOUDY    37  24  59 NW12G20   30.00R WCI  29
CHICAGO        FLURRIES  28  23  81 N6        30.26S WCI  22
HARTFORD       CLEAR     31  26  82 W5        29.89R WCI  26
BOSTON         CLOUDY    34  24  67 W9G20     29.89R WCI  27
DALLAS         CLOUDY    46  43  89 NW6       30.21R
PHILADELPHIA   CLOUDY    37  24  59 W10       30.05S WCI  30


USA.gov is the U.S. government's official web portal to all federal, state and local government web resources and services.